Oscoda, MI

4:23 AM EDT on October 21, 2019 (GMT -0400)
Oscoda-Wurtsmith

Weather History for KOSC - September, 2019

Change the Weather History Date:

Monday, September 16, 2019

  Actual Average Record
Temperature  
Mean Temperature 62 °F -  
Max Temperature 68 °F 69 °F 81 °F (2012)
Min Temperature 54 °F 49 °F 33 °F (2011)
Degree Days  
Heating Degree Days 4    
Growing Degree Days 12 (Base 50)    
Moisture  
Dew Point 61 °F    
Average Humidity 94    
Maximum Humidity 100    
Minimum Humidity 78    
Precipitation  
Precipitation 0.00 in - - ()
Sea Level Pressure  
Sea Level Pressure 30.12 in    
Wind  
Wind Speed 3 mph (NNE)    
Max Wind Speed 8 mph    
Max Gust Speed -    
Visibility 9 miles    
Events Fog , Rain    
Averages and records for this station are not official NWS values.
T = Trace of Precipitation, MM = Missing Value Source: NWS Daily Summary

Daily Weather History Graph

Daily Weather History Graph

Search for Another Location

Airport or City:

Astronomy

Sep. 16, 2019 Rise Set
Actual Time 7:13 AM EDT 7:42 PM EDT
Civil Twilight 6:44 AM EDT 8:11 PM EDT
Nautical Twilight 6:09 AM EDT 8:46 PM EDT
Astronomical Twilight 5:33 AM EDT 9:21 PM EDT
Moon 9:12 PM EDT (9/16) 9:22 AM EDT (9/16)
Length of Visible Light 13h 27m
Length of Day
12h 29m
Waning Gibbous, 94% of the Moon is Illuminated
Sep 16
Waning Gibbous
Sep 21
Last Quarter
Sep 28
New
Oct 5
First Quarter
Oct 13
Full

Hourly Weather History & Observations

Time (EDT) Temp. Dew Point Humidity Pressure Visibility Wind Dir Wind Speed Gust Speed Precip Events Conditions
12:15 AM 63.1 °F 61.3 °F 94% 30.07 in 10.0 mi ENE 3.5 mph - N/A   Overcast
12:16 AM 63.1 °F 61.3 °F 94% 30.07 in 10.0 mi ENE 3.5 mph - N/A   Overcast
12:39 AM 63.0 °F 61.3 °F 94% 30.06 in 10.0 mi Calm Calm - N/A   Overcast
12:57 AM 63.5 °F 61.3 °F 93% 30.06 in 10.0 mi East 3.5 mph - N/A   Overcast
1:15 AM 62.8 °F 61.7 °F 96% 30.05 in 10.0 mi NE 4.6 mph - N/A   Overcast
1:35 AM 62.2 °F 61.9 °F 99% 30.06 in 10.0 mi Calm Calm - N/A   Overcast
1:36 AM 62.2 °F 61.9 °F 99% 30.06 in 10.0 mi Calm Calm - N/A   Overcast
1:55 AM 61.9 °F 61.7 °F 99% 30.06 in 10.0 mi North 4.6 mph - N/A   Overcast
2:00 AM 61.9 °F 61.7 °F 99% 30.06 in 10.0 mi North 3.5 mph - N/A   Overcast
2:18 AM 61.5 °F 61.5 °F 100% 30.06 in 10.0 mi Calm Calm - N/A   Overcast
2:36 AM 60.6 °F 60.6 °F 100% 30.05 in 10.0 mi Calm Calm - N/A   Scattered Clouds
2:55 AM 59.9 °F 59.9 °F 100% 30.05 in 10.0 mi NW 3.5 mph - N/A   Clear
2:56 AM 59.7 °F 59.7 °F 100% 30.05 in 10.0 mi NW 3.5 mph - N/A   Clear
3:15 AM 59.0 °F 59.0 °F 100% 30.06 in 10.0 mi North 4.6 mph - N/A   Scattered Clouds
3:39 AM 60.8 °F 60.8 °F 100% 30.06 in 10.0 mi Calm Calm - N/A   Overcast
3:57 AM 61.3 °F 61.3 °F 100% 30.06 in 10.0 mi Calm Calm - N/A   Overcast
4:15 AM 60.8 °F 60.8 °F 100% 30.07 in 10.0 mi NW 3.5 mph - N/A   Overcast
4:16 AM 60.8 °F 60.8 °F 100% 30.07 in 10.0 mi NW 3.5 mph - N/A   Overcast
4:35 AM 60.8 °F 60.8 °F 100% 30.07 in 10.0 mi Calm Calm - N/A   Overcast
4:55 AM 61.3 °F 61.3 °F 100% 30.06 in 10.0 mi Calm Calm - N/A   Overcast
5:18 AM 61.2 °F 61.2 °F 100% 30.07 in 10.0 mi Calm Calm - N/A   Overcast
5:36 AM 61.0 °F 61.0 °F 100% 30.08 in 10.0 mi NW 4.6 mph - N/A   Overcast
5:55 AM 61.2 °F 61.2 °F 100% 30.08 in 10.0 mi NNW 3.5 mph - N/A   Overcast
6:15 AM 61.7 °F 61.7 °F 100% 30.08 in 10.0 mi Calm Calm - N/A   Overcast
6:39 AM 61.7 °F 61.7 °F 100% 30.08 in 10.0 mi Calm Calm - N/A   Overcast
6:57 AM 61.3 °F 61.3 °F 100% 30.08 in 10.0 mi Calm Calm - N/A   Overcast
7:15 AM 61.0 °F 61.0 °F 100% 30.09 in 10.0 mi Calm Calm - N/A   Overcast
7:16 AM 61.2 °F 61.2 °F 100% 30.09 in 10.0 mi Calm Calm - N/A   Overcast
7:35 AM 61.7 °F 61.7 °F 100% 30.09 in 10.0 mi NNW 4.6 mph - N/A   Overcast
7:36 AM 61.7 °F 61.7 °F 100% 30.09 in 10.0 mi NNW 3.5 mph - N/A   Overcast
7:55 AM 61.9 °F 61.9 °F 100% 30.10 in 10.0 mi NNW 3.5 mph - N/A   Overcast
8:00 AM 61.9 °F 61.9 °F 100% 30.10 in 10.0 mi North 4.6 mph - N/A   Overcast
8:18 AM 62.1 °F 62.1 °F 100% 30.10 in 10.0 mi North 3.5 mph - N/A Rain Light Rain
8:36 AM 62.2 °F 62.2 °F 100% 30.11 in 10.0 mi Calm Calm - N/A   Overcast
8:55 AM 63.0 °F 63.0 °F 100% 30.11 in 10.0 mi Calm Calm - N/A   Overcast
9:15 AM 64.0 °F 63.1 °F 97% 30.11 in 10.0 mi North 3.5 mph - N/A   Overcast
9:39 AM 64.0 °F 63.5 °F 98% 30.12 in 10.0 mi NNE 3.5 mph - N/A   Overcast
9:57 AM 64.6 °F 63.5 °F 96% 30.12 in 10.0 mi NE 4.6 mph - N/A   Overcast
10:15 AM 64.8 °F 63.3 °F 95% 30.12 in 10.0 mi NE 4.6 mph - N/A   Overcast
10:35 AM 64.8 °F 63.5 °F 96% 30.13 in 10.0 mi NE 5.8 mph - N/A   Overcast
10:55 AM 64.8 °F 63.1 °F 94% 30.13 in 10.0 mi NE 5.8 mph - N/A   Overcast
10:59 AM 64.8 °F 63.3 °F 95% 30.13 in 10.0 mi NE 4.6 mph - N/A   Overcast
11:18 AM 64.9 °F 63.5 °F 95% 30.13 in 10.0 mi NNE 6.9 mph - N/A   Overcast
11:36 AM 65.3 °F 63.0 °F 92% 30.13 in 10.0 mi NE 5.8 mph - N/A   Overcast
11:55 AM 65.3 °F 63.1 °F 93% 30.13 in 10.0 mi NNE 5.8 mph - N/A   Overcast
12:15 PM 65.3 °F 63.5 °F 94% 30.13 in 10.0 mi NNE 5.8 mph - N/A   Overcast
12:39 PM 65.1 °F 62.6 °F 92% 30.13 in 7.0 mi NNE 5.8 mph - N/A   Overcast
12:57 PM 65.3 °F 62.6 °F 91% 30.13 in 10.0 mi NE 4.6 mph - N/A   Overcast
1:15 PM 66.2 °F 62.2 °F 87% 30.13 in 10.0 mi NNE 3.5 mph - N/A   Overcast
1:35 PM 66.2 °F 62.1 °F 86% 30.14 in 10.0 mi Calm Calm - N/A   Overcast
1:55 PM 67.1 °F 62.2 °F 84% 30.13 in 10.0 mi Calm Calm - N/A   Overcast
2:00 PM 67.5 °F 62.1 °F 83% 30.13 in 10.0 mi Calm Calm - N/A   Overcast
2:18 PM 67.6 °F 61.5 °F 81% 30.13 in 10.0 mi Calm Calm - N/A   Overcast
2:36 PM 68.0 °F 61.7 °F 80% 30.13 in 10.0 mi NE 3.5 mph - N/A   Overcast
2:55 PM 67.8 °F 62.1 °F 82% 30.13 in 10.0 mi Calm Calm - N/A   Overcast
3:15 PM 68.4 °F 61.7 °F 79% 30.13 in 10.0 mi Calm Calm - N/A   Overcast
3:16 PM 68.4 °F 61.9 °F 80% 30.13 in 10.0 mi NNE 3.5 mph - N/A   Overcast
3:39 PM 68.9 °F 61.9 °F 78% 30.13 in 10.0 mi ENE 4.6 mph - N/A   Overcast
3:57 PM 68.2 °F 61.9 °F 80% 30.13 in 10.0 mi ENE 6.9 mph - N/A   Overcast
4:15 PM 67.5 °F 61.7 °F 82% 30.13 in 10.0 mi NE 6.9 mph - N/A   Overcast
4:16 PM 67.6 °F 61.7 °F 81% 30.13 in 10.0 mi NE 5.8 mph - N/A   Overcast
4:35 PM 67.3 °F 61.7 °F 82% 30.13 in 10.0 mi ENE 6.9 mph - N/A   Overcast
4:36 PM 67.3 °F 61.7 °F 82% 30.13 in 10.0 mi NE 5.8 mph - N/A   Overcast
4:55 PM 67.5 °F 61.9 °F 82% 30.13 in 10.0 mi NE 4.6 mph - N/A   Overcast
5:00 PM 67.6 °F 62.1 °F 82% 30.13 in 10.0 mi ENE 6.9 mph - N/A   Overcast
5:18 PM 66.9 °F 61.7 °F 83% 30.13 in 10.0 mi ENE 5.8 mph - N/A   Overcast
5:36 PM 66.2 °F 61.5 °F 85% 30.13 in 10.0 mi ENE 8.1 mph - N/A   Mostly Cloudy
5:55 PM 64.6 °F 61.2 °F 89% 30.14 in 10.0 mi ENE 8.1 mph - N/A   Mostly Cloudy
5:56 PM 64.6 °F 61.2 °F 89% 30.14 in 10.0 mi ENE 6.9 mph - N/A   Mostly Cloudy
6:15 PM 64.6 °F 61.3 °F 89% 30.14 in 10.0 mi NE 8.1 mph - N/A   Overcast
6:39 PM 63.9 °F 61.2 °F 91% 30.15 in 10.0 mi NE 8.1 mph - N/A   Overcast
6:57 PM 63.7 °F 61.3 °F 92% 30.15 in 10.0 mi NE 6.9 mph - N/A   Overcast
7:15 PM 63.7 °F 61.0 °F 91% 30.15 in 10.0 mi NE 8.1 mph - N/A   Overcast
7:16 PM 63.7 °F 61.0 °F 91% 30.15 in 10.0 mi NE 6.9 mph - N/A   Overcast
7:35 PM 63.1 °F 61.0 °F 93% 30.15 in 10.0 mi NE 4.6 mph - N/A   Overcast
7:55 PM 62.6 °F 61.5 °F 96% 30.15 in 10.0 mi NE 5.8 mph - N/A   Overcast
8:18 PM 62.2 °F 61.5 °F 97% 30.15 in 10.0 mi NE 5.8 mph - N/A   Overcast
8:36 PM 62.1 °F 61.7 °F 99% 30.15 in 10.0 mi NE 5.8 mph - N/A   Overcast
8:55 PM 61.0 °F 60.8 °F 99% 30.16 in 10.0 mi NE 4.6 mph - N/A   Overcast
8:56 PM 61.0 °F 60.8 °F 99% 30.16 in 10.0 mi NE 4.6 mph - N/A   Overcast
9:15 PM 59.9 °F 59.9 °F 100% 30.16 in 10.0 mi NE 3.5 mph - N/A   Mostly Cloudy
9:39 PM 59.9 °F 59.9 °F 100% 30.17 in 10.0 mi NE 3.5 mph - N/A   Scattered Clouds
9:57 PM 59.9 °F 59.9 °F 100% 30.16 in 10.0 mi Calm Calm - N/A   Clear
10:15 PM 57.2 °F 57.2 °F 100% 30.17 in 2.5 mi Calm Calm - N/A   Clear
10:16 PM 57.2 °F 57.2 °F 100% 30.17 in 2.0 mi Calm Calm - N/A   Clear
10:35 PM 56.7 °F 56.7 °F 100% 30.17 in 0.8 mi Calm Calm - N/A   Mist
10:36 PM 56.5 °F 56.5 °F 100% 30.17 in 0.8 mi Calm Calm - N/A   Mist
10:55 PM 55.4 °F 55.4 °F 100% 30.18 in 0.5 mi Calm Calm - N/A Fog Fog
11:18 PM 55.4 °F 55.4 °F 100% 30.18 in 10.0 mi Calm Calm - N/A   Scattered Clouds
11:36 PM 55.0 °F 55.0 °F 100% 30.18 in 10.0 mi Calm Calm - N/A   Mostly Cloudy
11:55 PM 54.1 °F 54.1 °F 100% 30.18 in 0.8 mi Calm Calm - N/A   Overcast